Weather History for KEGE - September, 2012

Change the Weather History Date:

Friday, September 14, 2012

  Actual Average Record
Temperature  
Mean Temperature 58 °F -  
Max Temperature 78 °F 73 °F 93 °F (1990)
Min Temperature 37 °F 35 °F 24 °F (1951)
Degree Days  
Heating Degree Days 8    
Growing Degree Days 8 (Base 50)    
Moisture  
Dew Point 31 °F    
Average Humidity 50    
Maximum Humidity 87    
Minimum Humidity 11    
Precipitation  
Precipitation 0.00 in - - ()
Sea Level Pressure  
Sea Level Pressure 30.43 in    
Wind  
Wind Speed 2 mph (ESE)    
Max Wind Speed 9 mph    
Max Gust Speed -    
Visibility 10 miles    
Events      
Averages and records for this station are not official NWS values.
T = Trace of Precipitation, MM = Missing Value Source: NWS Daily Summary

Daily Weather History Graph

Daily Weather History Graph

Search for Another Location

Airport or City:

Trip Planner

Search our weather history database for the weather conditions in past years. The results will help you decide how hot, cold, wet, or windy it might be!

Date:

Astronomy

Sep. 14, 2012 Rise Set
Actual Time 6:48 AM MDT 7:16 PM MDT
Civil Twilight 6:21 AM MDT 7:43 PM MDT
Nautical Twilight 5:49 AM MDT 8:15 PM MDT
Astronomical Twilight 5:16 AM MDT 8:48 PM MDT
Moon 5:15 AM MDT (9/14) 6:15 PM MDT (9/14)
Length of Visible Light 13h 22m
Length of Day
12h 28m
Waning Crescent, 2% of the Moon is Illuminated
Sep 14
Waning Crescent
Sep 15
New
Sep 22
First Quarter
Sep 29
Full
Oct 8
Last Quarter

Hourly Weather History & Observations

Time (MDT) Temp. Windchill Dew Point Humidity Pressure Visibility Wind Dir Wind Speed Gust Speed Precip Events Conditions
12:15 AM 48.2 °F - 35.6 °F 62% 30.49 in 10.0 mi Calm Calm - N/A   Clear
12:35 AM 48.2 °F - 33.8 °F 58% 30.49 in 10.0 mi Calm Calm - N/A   Clear
12:55 AM 46.4 °F - 33.8 °F 62% 30.50 in 10.0 mi Calm Calm - N/A   Clear
1:15 AM 46.4 °F - 33.8 °F 62% 30.50 in 10.0 mi Calm Calm - N/A   Clear
1:35 AM 46.4 °F 45.2 °F 33.8 °F 62% 30.50 in 10.0 mi ESE 3.5 mph - N/A   Clear
1:55 AM 46.4 °F - 33.8 °F 62% 30.50 in 10.0 mi Calm Calm - N/A   Clear
2:15 AM 44.6 °F - 35.6 °F 71% 30.50 in 10.0 mi Calm Calm - N/A   Clear
2:35 AM 44.6 °F - 33.8 °F 66% 30.50 in 10.0 mi Calm Calm - N/A   Clear
2:55 AM 44.6 °F - 33.8 °F 66% 30.50 in 10.0 mi Calm Calm - N/A   Clear
3:15 AM 42.8 °F 40.1 °F 35.6 °F 76% 30.50 in 10.0 mi SSE 4.6 mph - N/A   Clear
3:35 AM 42.8 °F 41.1 °F 33.8 °F 70% 30.51 in 10.0 mi East 3.5 mph - N/A   Clear
3:55 AM 42.8 °F 41.1 °F 33.8 °F 70% 30.51 in 10.0 mi ESE 3.5 mph - N/A   Clear
4:15 AM 41.0 °F 38.0 °F 35.6 °F 81% 30.51 in 10.0 mi East 4.6 mph - N/A   Clear
4:35 AM 39.2 °F 34.2 °F 33.8 °F 81% 30.51 in 10.0 mi East 6.9 mph - N/A   Clear
4:55 AM 39.2 °F 37.0 °F 33.8 °F 81% 30.51 in 10.0 mi East 3.5 mph - N/A   Clear
5:15 AM 39.2 °F 37.0 °F 33.8 °F 81% 30.51 in 10.0 mi ESE 3.5 mph - N/A   Clear
5:35 AM 39.2 °F 37.0 °F 33.8 °F 81% 30.52 in 10.0 mi ESE 3.5 mph - N/A   Clear
5:55 AM 37.4 °F - 33.8 °F 87% 30.52 in 10.0 mi Calm Calm - N/A   Clear
6:15 AM 39.2 °F - 33.8 °F 81% 30.53 in 10.0 mi Calm Calm - N/A   Clear
6:35 AM 37.4 °F - 33.8 °F 87% 30.53 in 10.0 mi Calm Calm - N/A   Clear
7:55 AM 39.2 °F - 33.8 °F 81% 30.55 in 10.0 mi Calm Calm - N/A   Clear
8:45 AM 44.6 °F - 33.8 °F 66% 30.54 in 10.0 mi Calm Calm - N/A   Clear
9:48 AM 51.8 °F - 33.8 °F 50% 30.53 in 10.0 mi Calm Calm - N/A   Clear
10:47 AM 55.4 °F - 32.0 °F 41% 30.51 in 10.0 mi Calm Calm - N/A   Clear
11:55 AM 62.6 °F - 28.4 °F 27% 30.47 in 10.0 mi Calm Calm - N/A   Clear
12:52 PM 66.2 °F - 30.2 °F 26% 30.43 in 10.0 mi Calm Calm - N/A   Clear
1:45 PM 73.4 °F - 21.2 °F 14% 30.40 in 10.0 mi SW 3.5 mph - N/A   Clear
2:50 PM 75.2 °F - 19.4 °F 12% 30.36 in 10.0 mi Calm Calm - N/A   Partly Cloudy
3:50 PM 78.8 °F - 19.4 °F 11% 30.34 in 10.0 mi Calm Calm - N/A   Partly Cloudy
4:50 PM 78.8 °F - 19.4 °F 11% 30.31 in 10.0 mi Calm Calm - N/A   Partly Cloudy
5:50 PM 78.8 °F - 21.2 °F 12% 30.30 in 10.0 mi Calm Calm - N/A   Partly Cloudy
6:50 PM 75.2 °F - 24.8 °F 15% 30.24 in 10.0 mi SW 4.6 mph - N/A   Clear
7:15 PM 73.4 °F - 24.8 °F 16% 30.29 in 10.0 mi WSW 4.6 mph - N/A   Clear
7:35 PM 69.8 °F - 28.4 °F 21% 30.30 in 10.0 mi Calm Calm - N/A   Clear
7:55 PM 66.2 °F - 33.8 °F 30% 30.31 in 10.0 mi East 8.1 mph - N/A   Clear
8:15 PM 62.6 °F - 33.8 °F 34% 30.32 in 10.0 mi East 9.2 mph - N/A   Clear
8:35 PM 60.8 °F - 30.2 °F 31% 30.32 in 10.0 mi East 9.2 mph - N/A   Clear
8:55 PM 59.0 °F - 30.2 °F 34% 30.33 in 10.0 mi East 9.2 mph - N/A   Clear
9:15 PM 57.2 °F - 30.2 °F 36% 30.34 in 10.0 mi ESE 4.6 mph - N/A   Clear
9:35 PM 57.2 °F - 33.8 °F 41% 30.35 in 10.0 mi East 5.8 mph - N/A   Clear
9:55 PM 55.4 °F - 32.0 °F 41% 30.36 in 10.0 mi SE 4.6 mph - N/A   Clear
10:15 PM 55.4 °F - 30.2 °F 38% 30.36 in 10.0 mi East 5.8 mph - N/A   Clear
10:35 PM 53.6 °F - 33.8 °F 47% 30.36 in 10.0 mi ESE 4.6 mph - N/A   Clear
10:55 PM 53.6 °F - 30.2 °F 41% 30.37 in 10.0 mi East 3.5 mph - N/A   Clear
11:15 PM 53.6 °F - 32.0 °F 44% 30.38 in 10.0 mi SSE 4.6 mph - N/A   Clear
11:35 PM 51.8 °F - 32.0 °F 47% 30.38 in 10.0 mi SE 4.6 mph - N/A   Clear
11:55 PM 50.0 °F - 32.0 °F 50% 30.39 in 10.0 mi Calm Calm - N/A   Clear